UPS208 KLAX-EDDF

Flight info

Callsign UPS208
Flight time N/A
Altitude 31000
Route ORCKA5 LAS DCT BAWER DCT LARVE DCT EKR DCT BFF DCT KD78A DCT RWF DCT GEP DCT KP09K DCT CMX DCT HENDY DCT YWK DCT HOIST/M084F310 DCT 57N050W 58N040W 58N030W 57N020W DCT PIKIL DCT SOVED/N0489F310 DCT LUTOV DCT BELOX L603 DOLAS DCT NAVPI DCT NOLRU DCT DIXAT DIXAT1D
Aircraft MD11/H-SDE1E2E3FGHIJ2J3J4J5M1RWXY/LB1D1

Departure

Time 2026-04-20 03:16
Airport Los Angeles International Airport (KLAX)

Arrival

Time N/A
Airport Frankfurt Main Airport (EDDF)
Time Latitude Longitude Altitude Speed Heading
2026-04-20 02:44 33.93332 -118.38588 133 ft 0 kts 269°
2026-04-20 03:00 33.93332 -118.38572 128 ft 4 kts 269°
2026-04-20 03:00 33.93333 -118.38544 133 ft 4 kts 279°
2026-04-20 03:00 33.93327 -118.38520 133 ft 4 kts 324°
2026-04-20 03:01 33.93307 -118.38511 130 ft 4 kts
2026-04-20 03:01 33.93288 -118.38512 128 ft 0 kts
2026-04-20 03:06 33.93303 -118.38512 126 ft 5 kts
2026-04-20 03:06 33.93341 -118.38510 130 ft 5 kts
2026-04-20 03:07 33.93370 -118.38512 131 ft 4 kts 359°
2026-04-20 03:07 33.93391 -118.38512 126 ft 2 kts 359°
2026-04-20 03:07 33.93401 -118.38512 129 ft 1 kts 359°
2026-04-20 03:07 33.93405 -118.38512 129 ft 3 kts 359°
2026-04-20 03:08 33.93438 -118.38512 130 ft 5 kts 359°
2026-04-20 03:08 33.93480 -118.38512 133 ft 8 kts
2026-04-20 03:08 33.93553 -118.38501 125 ft 11 kts 21°
2026-04-20 03:08 33.93591 -118.38434 133 ft 9 kts 74°
2026-04-20 03:09 33.93603 -118.38369 129 ft 6 kts 83°
2026-04-20 03:09 33.93606 -118.38348 126 ft 0 kts 79°
2026-04-20 03:14 33.93609 -118.38343 125 ft 1 kts 66°
2026-04-20 03:14 33.93643 -118.38299 128 ft 25 kts 30°
2026-04-20 03:14 33.93720 -118.38342 129 ft 9 kts 286°
2026-04-20 03:15 33.93722 -118.38396 125 ft 5 kts 266°
2026-04-20 03:15 33.93712 -118.38535 130 ft 42 kts 263°
2026-04-20 03:15 33.93653 -118.39125 125 ft 100 kts 262°
2026-04-20 03:15 33.93541 -118.40179 128 ft 153 kts 263°
2026-04-20 03:16 33.93391 -118.41615 195 ft 182 kts 263°
2026-04-20 03:16 33.93230 -118.43140 666 ft 184 kts 263°
2026-04-20 03:16 33.93065 -118.44695 1172 ft 190 kts 262°
2026-04-20 03:16 33.92754 -118.46247 1678 ft 192 kts 250°
2026-04-20 03:17 33.92263 -118.47764 2098 ft 197 kts 248°
2026-04-20 03:17 33.91743 -118.49299 2501 ft 200 kts 247°
2026-04-20 03:17 33.91218 -118.50839 2859 ft 203 kts 246°
2026-04-20 03:17 33.90666 -118.52445 3210 ft 207 kts 245°
2026-04-20 03:18 33.90093 -118.54103 3378 ft 225 kts 245°
2026-04-20 03:18 33.89463 -118.55916 3521 ft 246 kts 246°
2026-04-20 03:18 33.88784 -118.57866 3646 ft 266 kts 245°
2026-04-20 03:18 33.88043 -118.59990 3795 ft 286 kts 246°
2026-04-20 03:19 33.87246 -118.62274 3967 ft 305 kts 246°
2026-04-20 03:19 33.86420 -118.64638 4534 ft 309 kts 245°
2026-04-20 03:19 33.85459 -118.66951 5139 ft 309 kts 231°
2026-04-20 03:19 33.83938 -118.68734 5871 ft 296 kts 214°
2026-04-20 03:20 33.82441 -118.69974 7330 ft 243 kts 212°
2026-04-20 03:20 33.81027 -118.71099 7384 ft 247 kts 212°
2026-04-20 03:20 33.79578 -118.72241 7414 ft 247 kts 211°
2026-04-20 03:20 33.78149 -118.73367 7536 ft 244 kts 211°
2026-04-20 03:21 33.76600 -118.74084 7629 ft 238 kts 184°
2026-04-20 03:21 33.74998 -118.73770 7737 ft 235 kts 154°
2026-04-20 03:21 33.73728 -118.72498 7640 ft 247 kts 124°
2026-04-20 03:21 33.73035 -118.70625 7786 ft 248 kts 104°
2026-04-20 03:22 33.73085 -118.68563 7896 ft 253 kts 74°
2026-04-20 03:22 33.73991 -118.66749 7998 ft 259 kts 46°
2026-04-20 03:22 33.75500 -118.65435 7905 ft 273 kts 33°
2026-04-20 03:22 33.77000 -118.64040 8045 ft 275 kts 46°
2026-04-20 03:23 33.78321 -118.62357 8187 ft 279 kts 50°
2026-04-20 03:23 33.79635 -118.60602 8318 ft 285 kts 50°
2026-04-20 03:23 33.80986 -118.58822 8453 ft 289 kts 49°
2026-04-20 03:23 33.82338 -118.57076 8840 ft 285 kts 49°
2026-04-20 03:24 33.83704 -118.55336 9069 ft 286 kts 49°
2026-04-20 03:24 33.85079 -118.53601 9301 ft 287 kts 48°
2026-04-20 03:24 33.86468 -118.51858 9510 ft 289 kts 48°
2026-04-20 03:24 33.87871 -118.50106 9793 ft 296 kts 48°
2026-04-20 03:25 33.89338 -118.48273 9928 ft 312 kts 48°
2026-04-20 03:25 33.90879 -118.46352 10188 ft 322 kts 48°
2026-04-20 03:25 33.92454 -118.44380 10439 ft 335 kts 50°
2026-04-20 03:25 33.93951 -118.42163 10586 ft 348 kts 56°
2026-04-20 03:26 33.95383 -118.39730 10710 ft 364 kts 58°
2026-04-20 03:26 33.96833 -118.37155 10961 ft 374 kts 58°
2026-04-20 03:26 33.98293 -118.34539 11467 ft 378 kts 58°
2026-04-20 03:26 33.99745 -118.31938 11991 ft 381 kts 58°
2026-04-20 03:27 34.01236 -118.29282 12497 ft 384 kts 58°
2026-04-20 03:27 34.02746 -118.26604 13021 ft 387 kts 58°
2026-04-20 03:27 34.04271 -118.23907 13527 ft 390 kts 58°
2026-04-20 03:27 34.05809 -118.21191 13984 ft 393 kts 58°
2026-04-20 03:28 34.07359 -118.18454 14459 ft 396 kts 58°
2026-04-20 03:28 34.08917 -118.15703 14900 ft 399 kts 58°
2026-04-20 03:28 34.12063 -118.10140 15791 ft 404 kts 57°
2026-04-20 03:29 34.13648 -118.07329 16233 ft 407 kts 57°
2026-04-20 03:29 34.15246 -118.04492 16672 ft 409 kts 57°
2026-04-20 03:29 34.16854 -118.01636 17112 ft 412 kts 57°
2026-04-20 03:29 34.18471 -117.98765 17549 ft 415 kts 57°
2026-04-20 03:30 34.20096 -117.95876 18003 ft 418 kts 57°
2026-04-20 03:30 34.21735 -117.92961 18405 ft 420 kts 57°
2026-04-20 03:30 34.23383 -117.90030 18782 ft 422 kts 57°
2026-04-20 03:30 34.25015 -117.87122 19140 ft 425 kts 57°
2026-04-20 03:31 34.26681 -117.84154 19502 ft 427 kts 57°
2026-04-20 03:31 34.28354 -117.81171 19885 ft 430 kts 57°
2026-04-20 03:31 34.30033 -117.78173 20260 ft 432 kts 57°
2026-04-20 03:31 34.31723 -117.75154 20622 ft 434 kts 57°
2026-04-20 03:32 34.33424 -117.72112 20971 ft 437 kts 57°
2026-04-20 03:32 34.35146 -117.69064 21334 ft 439 kts 56°
2026-04-20 03:32 34.36911 -117.66032 21684 ft 441 kts 55°
2026-04-20 03:32 34.38707 -117.62999 22030 ft 444 kts 54°
2026-04-20 03:33 34.40519 -117.59960 22380 ft 446 kts 54°
2026-04-20 03:33 34.42339 -117.56910 22722 ft 448 kts 54°
2026-04-20 03:33 34.44167 -117.53842 23062 ft 450 kts 54°
2026-04-20 03:33 34.46004 -117.50753 23400 ft 452 kts 54°
2026-04-20 03:34 34.47823 -117.47690 23698 ft 455 kts 54°
2026-04-20 03:34 34.49697 -117.44528 23974 ft 457 kts 54°
2026-04-20 03:34 34.51552 -117.41396 24271 ft 458 kts 54°
2026-04-20 03:34 34.53414 -117.38247 24546 ft 460 kts 54°
2026-04-20 03:35 34.55279 -117.35093 24838 ft 461 kts 53°
2026-04-20 03:35 34.57148 -117.31927 25114 ft 463 kts 53°
2026-04-20 03:35 34.59026 -117.28743 25392 ft 464 kts 53°
2026-04-20 03:35 34.60908 -117.25550 25651 ft 466 kts 53°
2026-04-20 03:36 34.62770 -117.22389 25907 ft 467 kts 53°
2026-04-20 03:36 34.64685 -117.19135 26162 ft 469 kts 53°
2026-04-20 03:36 34.66558 -117.15947 26412 ft 470 kts 53°
2026-04-20 03:36 34.68460 -117.12708 26654 ft 471 kts 53°
2026-04-20 03:37 34.70369 -117.09455 26895 ft 473 kts 53°
2026-04-20 03:37 34.72281 -117.06193 27109 ft 475 kts 53°
2026-04-20 03:37 34.74199 -117.02919 27371 ft 476 kts 53°
2026-04-20 03:37 34.76124 -116.99631 27627 ft 477 kts 53°
2026-04-20 03:38 34.78048 -116.96339 27878 ft 478 kts 53°
2026-04-20 03:38 34.79978 -116.93035 28122 ft 480 kts 53°
2026-04-20 03:38 34.81913 -116.89718 28364 ft 481 kts 53°
2026-04-20 03:38 34.83848 -116.86388 28603 ft 483 kts 53°
2026-04-20 03:39 34.85783 -116.83041 28814 ft 484 kts 53°
2026-04-20 03:39 34.87723 -116.79684 29034 ft 485 kts 53°
2026-04-20 03:39 34.89707 -116.76356 29215 ft 486 kts 50°
2026-04-20 03:39 34.91871 -116.73182 29456 ft 487 kts 47°
2026-04-20 03:40 34.94146 -116.70119 29666 ft 488 kts 46°
2026-04-20 03:40 34.96468 -116.67101 29871 ft 490 kts 45°
2026-04-20 03:40 34.98812 -116.64076 30064 ft 491 kts 45°
2026-04-20 03:40 35.01157 -116.61033 30231 ft 493 kts 45°
2026-04-20 03:41 35.03497 -116.57972 30410 ft 494 kts 46°
2026-04-20 03:41 35.05836 -116.54892 30563 ft 496 kts 46°
2026-04-20 03:41 35.08179 -116.51790 30747 ft 496 kts 46°
2026-04-20 03:41 35.10522 -116.48682 30890 ft 498 kts 46°
2026-04-20 03:42 35.15239 -116.42411 30938 ft 504 kts 46°
2026-04-20 03:42 35.19989 -116.36087 30934 ft 504 kts 46°